NOAA 16 DEB, 41131

Orbit data source: Space-Track

NOAA 16 DEB, 41131 is space debris in SSO originally from a launch on Thu, 21 Sep 2000 UTC launched from the Air Force Western Test Range (AFWTR). Debris objects in space refer to the collection of defunct objects orbiting the Earth. Examples of debris include non-operational satellites, rocket bodies, and fragments generated from explosions, collisions, or faulty payload assembly.

Loading next visibility...
Identifier
41131, 2000-055BN
Orbit
SSO
Country
Flag of USUS
Related business
Manufacturer
Unknown
Mission
Spacecraft
Bus & Motor
Unknown
Mass
Unknown
Launch date (UTC)
2000-09-21 (25 years ago)
Launch vehicle
Unknown
Launch site
Air Force Western Test Range (AFWTR)
Object type
Payload
Rocket body
Debris
Shape & HBR
Unknown shape, 0.1 m
Radar Cross Section
Small (<0.1 m²)

Expand to show TLE details & history
Last TLE update: 2 days ago

TLE from 2 days ago
0 NOAA 16 DEB
1 41131U 00055BN  25292.97528961  .00004679  00000-0  27287-2 0  9991
2 41131  98.7814 295.7573 0054636 336.0190  23.8436 14.08195395504306
Epoch: 2025-10-19T23:24Z
TLE epoch observation values (Epoch: 2025-10-19T23:24:25.022Z)
Latitude
-0.00006°
Longitude
-84.03119°
Altitude
832.279 km
Speed
7.455 km/s
True Right ascension
19h 43m 01s
True Declination
0° 00' 00"
Sunlit
Object was in daylight at epoch
Visualization orbit readout
Latitude
Unknown
Longitude
Unknown
Altitude
Unknown
Speed
Unknown
Apparent Right ascension
Unknown
Apparent Declination
Unknown
Sunlit
N/A
Visualization observer readout
Local Sidereal Time
09:03:34
Azimuth
Unknown
Elevation
Unknown
Doppler factor
Unknown
Orbital elements
Apogee altitude
902.293 km
Perigee altitude
823.17 km
Semi-major axis
7,240.868 km
Eccentricity
0.00546
Inclination
98.7814°
RAAN
295.7573°
Arg. of periapsis
336.019°
True anomaly
24.09828°
Mean anomaly
23.8436°
Eccentric anomaly
23.97078°
Mean motion
3.52255 °/min
Orbital period
102.2 mins
BSTAR
0.0027287
Loading maneuver chart data...
Computing Atmospheric mass density...

Documentation

Showing up to 5 results
|